User: anonymous   Login
Location: Koslow
(50.3020°N, 18.5663°E)
Time: 13:24:47
(UTC+00:00)
Language:

Cosmos 1842 Rocket - Orbit

View from above orbital plane
View from above orbital plane
View from above satellite
View from above satellite

Ground track
Ground track

The orbit data is extracted from the following two-line orbital elements,

1 17912U 87038B   21125.83437982  .00000082  00000-0  71617-5 0  9998
2 17912  82.5010 159.1689 0018896 236.1565 123.7852 14.83077706816902
Epoch (UTC): 05 May 2021 20:01:30
Eccentricity: 0.0018896
inclination: 82.5010°
perigee height: 606 km
apogee height: 633 km
right ascension of ascending node: 159.1689°
argument of perigee: 236.1565°
revolutions per day: 14.83077706
mean anomaly at epoch: 123.7852°
orbit number at epoch: 81690

The dashed part of the orbit path shows where the satellite is in the earth's shadow,  

DLR